Latest Conditions
At L.F.Wade Int. Airport
Recorded at 3:01 am
Rain
Temp.: 
23°C/73°F
Humidity: 
76%
Wind: 
SSE 20KT
or 23mph
UV Index: 
0
Island Observations
 
Observations
Thursday, November 23, 2017

Observations are in local time and taken at least once an hour, or upon the start and end of specified events such as showers and thunderstorms.

Time Sky / Weather Wind Speed/Gusts Temp. R.H. Pressure
     knots (mph)  °C (°F)  %  mb / "Hg
 03:01 Overcast Rain SSE 20/0 (23/0) 23(73) 76 1011 / 29.86
 02:55 Overcast Showers SSE 19/0 (22/0) 23(73) 76 1011 / 29.86
 02:37 Overcast Showers SSE 20/0 (23/0) 23(73) 77 1011 / 29.85
 02:22 Overcast Showers SSE 20/30 (23/35) 23(73) 77 1011 / 29.86
 01:55 Overcast Showers SSE 13/0 (15/0) 23(73) 77 1012 / 29.87
 01:03 Overcast Showers SSE 17/0 (20/0) 21(70) 92 1013 / 29.90
 00:55 Overcast Rain SSE 18/0 (21/0) 21(70) 92 1013 / 29.92
 23:55 Overcast Rain S 18/28 (21/32) 23(73) 73 1014 / 29.94
 22:55 Overcast Rain S 22/0 (25/0) 23(73) 81 1014 / 29.95
 21:55 Overcast Showers S 18/0 (21/0) 23(74) 83 1015 / 29.96
 21:21 Overcast Showers S 10/0 (12/0) 20(68) 92 1015 / 29.97
 20:55 Overcast Showers SSE 19/32 (22/37) 20(68) 92 1015 / 29.98
 20:43 Overcast Showers S 17/27 (20/31) 23(74) 88 1016 / 29.99
 20:29 Overcast Showers S 21/0 (24/0) 23(74) 88 1015 / 29.98
 20:21 Overcast Showers SSE 19/33 (22/38) 23(74) 88 1016 / 29.99
 19:55 Overcast Showers SE 18/0 (21/0) 23(74) 88 1015 / 29.98
 18:55 Overcast  SE 16/0 (18/0) 23(73) 92 1016 / 29.99
 17:55 Overcast Showers SE 18/0 (21/0) 22(72) 92 1016 / 30.00
 17:43 Overcast Showers SE 17/0 (20/0) 23(73) 94 1016 / 30.01
 17:13 Overcast Showers SE 20/0 (23/0) 23(73) 94 1016 / 30.01
 17:01 Overcast Showers SE 17/0 (20/0) 23(73) 94 1017 / 30.02
 16:55 Overcast Showers SE 18/0 (21/0) 23(73) 94 1017 / 30.02
 16:32 Overcast Showers SE 19/0 (22/0) 23(74) 88 1017 / 30.02
 16:16 Overcast Showers SE 21/0 (24/0) 23(74) 88 1017 / 30.02
 15:55 Overcast Showers SE 23/0 (26/0) 23(74) 88 1017 / 30.02
 15:21 Overcast Showers SE 20/0 (23/0) 23(73) 94 1017 / 30.02
 15:06 Overcast Showers SE 17/0 (20/0) 23(73) 94 1017 / 30.02
 14:55 Overcast Showers SE 19/0 (22/0) 23(73) 94 1017 / 30.03
 14:32 Overcast Showers SE 21/0 (24/0) 22(72) 98 1017 / 30.03
 13:55 Overcast Showers SE 21/0 (24/0) 22(72) 98 1017 / 30.04
 13:48 Overcast Showers SE 21/0 (24/0) 23(73) 91 1018 / 30.05
 13:38 Overcast Showers SE 21/0 (24/0) 22(72) 99 1018 / 30.06
 13:32 Overcast Showers SE 22/0 (25/0) 22(72) 99 1018 / 30.06
 13:25 Overcast Showers SE 21/0 (24/0) 23(73) 92 1018 / 30.06
 12:57 Overcast Showers SE 22/0 (25/0) 22(72) 92 1018 / 30.07
 12:55 Overcast Showers SE 22/0 (25/0) 23(73) 91 1018 / 30.07
 12:21 Overcast Showers SE 20/0 (23/0) 23(74) 81 1019 / 30.09
 11:55 Overcast  ESE 23/0 (26/0) 23(74) 78 1019 / 30.10
 10:55 Overcast  ESE 24/0 (28/0) 23(74) 76 1021 / 30.14
 09:55 Overcast  ESE 21/0 (24/0) 23(74) 74 1021 / 30.15
 08:55 Overcast  ESE 21/0 (24/0) 23(74) 74 1022 / 30.17
 07:55 Overcast  ESE 22/0 (25/0) 23(73) 70 1022 / 30.17
 06:55 Overcast  ESE 20/0 (23/0) 22(72) 70 1022 / 30.18
 05:55 Mostly Cloudy  ESE 18/0 (21/0) 22(71) 74 1022 / 30.18
 04:55 Mostly Cloudy  ESE 18/0 (21/0) 22(71) 71 1022 / 30.19
 03:55 Partly Cloudy  ESE 19/0 (22/0) 22(71) 63 1023 / 30.21
 02:55 Mostly Cloudy  ESE 15/0 (17/0) 22(71) 63 1024 / 30.24
 01:55 Overcast  ESE 17/0 (20/0) 22(71) 60 1025 / 30.26
 00:55 Mostly Cloudy  ESE 16/0 (18/0) 22(71) 60 1025 / 30.26
 23:55 Mostly Cloudy  ESE 17/0 (20/0) 21(71) 61 1025 / 30.28
 22:55 Mostly Cloudy  E 15/0 (17/0) 21(70) 62 1026 / 30.30
 21:55 Mostly Cloudy  ESE 14/0 (16/0) 21(70) 64 1027 / 30.32
 20:55 Mostly Cloudy  E 15/0 (17/0) 21(69) 63 1026 / 30.31
 19:55 Mostly Cloudy  E 14/0 (16/0) 21(69) 61 1026 / 30.31
 18:55 Mostly Cloudy  E 14/0 (16/0) 20(69) 62 1026 / 30.31
 17:55 Partly Cloudy  E 14/0 (16/0) 20(69) 60 1026 / 30.30
 16:55 Partly Cloudy  E 14/0 (16/0) 21(69) 60 1026 / 30.29
 15:55 Partly Cloudy  E 12/0 (14/0) 21(70) 56 1026 / 30.29
 14:55 Mostly Cloudy  ENE 14/0 (16/0) 21(70) 58 1025 / 30.28
 13:55 Mostly Cloudy  ENE 13/0 (15/0) 21(70) 61 1025 / 30.28
 12:55 Mostly Cloudy  E 12/0 (14/0) 22(71) 57 1026 / 30.30
 11:55 Partly Cloudy  ENE 12/0 (14/0) 21(69) 56 1027 / 30.32
 10:55 Mostly Cloudy  ENE 12/0 (14/0) 21(69) 58 1027 / 30.33
 09:55 Mostly Cloudy  NE 12/0 (14/0) 21(69) 60 1027 / 30.33
 08:55 Mostly Cloudy  ENE 9/0 (10/0) 20(69) 57 1027 / 30.32
 07:55 Partly Cloudy  NE 8/0 (9/0) 19(67) 57 1026 / 30.30
 06:55 Few Clouds  ENE 8/0 (9/0) 19(66) 58 1025 / 30.28
 05:55 Few Clouds  NE 10/0 (12/0) 19(66) 59 1025 / 30.26
 04:55 Few Clouds  NE 11/0 (13/0) 19(67) 60 1024 / 30.25
 03:55 Few Clouds  NNE 11/0 (13/0) 20(67) 58 1023 / 30.22
 02:55 Few Clouds  NNE 11/0 (13/0) 20(67) 56 1024 / 30.23
 01:55 Partly Cloudy  N 10/0 (12/0) 20(68) 56 1024 / 30.23
 00:55 Partly Cloudy  NNE 13/0 (15/0) 20(68) 56 1023 / 30.22
 23:55 Mostly Cloudy  NNE 12/0 (14/0) 20(68) 54 1023 / 30.21
 22:55 Mostly Cloudy  NNE 8/0 (9/0) 20(68) 56 1023 / 30.20
 21:55 Few Clouds  N 11/0 (13/0) 20(68) 56 1022 / 30.19
 20:55 Partly Cloudy  N 11/0 (13/0) 20(68) 56 1022 / 30.17
 19:55 Mostly Cloudy  N 12/0 (14/0) 21(69) 55 1021 / 30.15
 18:55 Mostly Cloudy  N 14/0 (16/0) 21(70) 54 1020 / 30.12
 17:55 Mostly Cloudy  N 14/0 (16/0) 21(70) 56 1020 / 30.11
 16:55 Mostly Cloudy  N 12/0 (14/0) 21(70) 63 1019 / 30.08
 15:55 Mostly Cloudy  N 11/0 (13/0) 22(71) 59 1018 / 30.07
 14:55 Mostly Cloudy Showers N 13/0 (15/0) 21(70) 78 1018 / 30.05
 13:55 Overcast Rain NNW 12/0 (14/0) 20(68) 80 1017 / 30.04
 13:42 Overcast Rain NNW 12/0 (14/0) 21(69) 81 1017 / 30.04
 12:55 Overcast Showers NW 13/0 (15/0) 19(67) 97 1017 / 30.04
 12:30 Overcast Showers NW 11/0 (13/0) 18(65) 99 1017 / 30.03
 11:55 Overcast Rain NW 18/0 (21/0) 18(65) 99 1017 / 30.04
 11:28 Overcast Rain NW 25/35 (29/40) 19(67) 99 1017 / 30.04
 11:13 Overcast Rain NNW 19/0 (22/0) 19(67) 99 1017 / 30.03
 10:55 Overcast Rain N 20/0 (23/0) 19(67) 99 1016 / 30.01
 10:45 Overcast Rain NNW 17/0 (20/0) 19(66) 94 1016 / 30.01
 10:29 Overcast Rain NNW 15/0 (17/0) 19(66) 94 1016 / 30.01
 10:15 Overcast Rain NNW 14/0 (16/0) 19(66) 94 1017 / 30.02
 09:55 Overcast Rain N 16/0 (18/0) 19(66) 94 1016 / 29.99
 09:30 Overcast Showers N 9/0 (10/0) 22(72) 90 1015 / 29.98
 08:55 Overcast Showers WNW 16/0 (18/0) 22(72) 90 1014 / 29.95
 07:55 Mostly Cloudy  WSW 15/0 (17/0) 24(75) 78 1014 / 29.93
 06:55 Partly Cloudy  SW 13/0 (15/0) 23(74) 76 1013 / 29.91
 05:55 Few Clouds  SW 14/0 (16/0) 23(74) 75 1013 / 29.90
Observations from our AWOS sites are available here (password and username are both 'guest').